Regional Weather Roundup
Issued by NWS

Home | Current Version | Previous Version | Graphics & Text | Print | Product List | Glossary On
Versions: 1 2 3 4 5 6 7 8 9 10 11 12 13 14 15 16 17 18 19 20 21 22 23 24 25 26 27 28 29 30 31 32 33 34 35 36 37 38 39 40 41 42 43 44 45 46 47 48 49 50
000
ASUS43 KBIS 260910
RWRND

NORTH DAKOTA REGIONAL WEATHER ROUNDUP
NATIONAL WEATHER SERVICE BISMARCK ND
400 AM CDT WED APR 26 2017

NOTE: "FAIR" INDICATES FEW OR NO CLOUDS BELOW 12,000 FEET WITH NO
SIGNIFICANT WEATHER AND/OR OBSTRUCTIONS TO VISIBILITY.


NDZ001>003-009>011-017-261000-
NORTHWEST NORTH DAKOTA

CITY           SKY/WX    TMP DP  RH WIND       PRES   REMARKS
WILLISTON      FAIR      30  21  69 E9G22     29.97F
MINOT          FAIR      28  21  75 N10       29.94S WCI  19
MINOT AFB      PTCLDY    28  20  72 N9        29.94F WCI  19
$$

NDZ018>021-031>035-040>046-261000-
SOUTHWEST NORTH DAKOTA

CITY           SKY/WX    TMP DP  RH WIND       PRES   REMARKS
BISMARCK       FAIR      34  25  69 N13       29.88F
DICKINSON      CLOUDY    30  24  78 NE5       29.88F
GARRISON         N/A     28  23  81 N8        29.91F WCI  20
HETTINGER ARPT CLOUDY    30  25  81 N7        29.88F
$$

NDZ004>008-012>016-024-026-027-054-261000-
NORTHEAST NORTH DAKOTA

CITY           SKY/WX    TMP DP  RH WIND       PRES   REMARKS
GRAND FORKS    CLOUDY    32  26  78 NE21G29   29.84F WCI  20
GRND FRKS AFB  CLOUDY    31  25  78 NE16G23   29.85S WCI  19
DEVILS LAKE    FAIR      29  23  78 NE15G25   29.88S WCI  18
$$

NDZ022-023-025-028>030-036>039-047>053-261000-
SOUTHEAST NORTH DAKOTA

CITY           SKY/WX    TMP DP  RH WIND       PRES   REMARKS
FARGO          FRZ RAIN  31  29  92 N17G28    29.76S WCI  19
JAMESTOWN      CLOUDY    30  26  85 N17       29.81F WCI  18
$$





USA.gov is the U.S. government's official web portal to all federal, state and local government web resources and services.